Location: Neuvy Saint Sepulchre
(46.5953°N, 1.8122°E)
Time: 10:48:21
(UTC+02:00)

ISS - Pass Details

Date: 24 April 2026
Orbit: 416 x 424 km, 51.6° (Epoch: 13 April)

Event Time Altitude Azimuth Distance (km) Brightness Sun altitude
Exits shadow 03:57:09 15° 101° (E) 1,230 -1.2 -24.2°
Drops below altitude 10° 03:58:06 10° 88° (E) 1,499 -0.5 -24.1°
Sets 04:00:33 0° 71° (ENE) 2,368 0.9 -23.9°
